Year,Month,Day,Hour,Minute,Value (Times are PST for temperature in C)
2012,03,23,00,00,3.20
2012,03,23,00,01,3.20
2012,03,23,00,02,3.20
2012,03,23,00,03,3.20
2012,03,23,00,04,3.20
2012,03,23,00,05,3.20
2012,03,23,00,06,3.20
2012,03,23,00,07,3.20
2012,03,23,00,08,3.20
2012,03,23,00,09,3.20
2012,03,23,00,10,3.20
2012,03,23,00,11,3.20
2012,03,23,00,12,3.20
2012,03,23,00,13,3.20
2012,03,23,00,14,3.10
2012,03,23,00,15,3.10
2012,03,23,00,16,3.10
2012,03,23,00,17,3.10
2012,03,23,00,18,3.10
2012,03,23,00,19,3.10
2012,03,23,00,20,3.10
2012,03,23,00,21,3.10
2012,03,23,00,22,3.10
2012,03,23,00,23,3.10
2012,03,23,00,24,3.10
2012,03,23,00,25,3.10
2012,03,23,00,26,3.10
2012,03,23,00,27,3.10
2012,03,23,00,28,3.10
2012,03,23,00,29,3.10
2012,03,23,00,30,3.10
2012,03,23,00,31,3.00
2012,03,23,00,32,3.00
2012,03,23,00,33,3.00
2012,03,23,00,34,3.00
2012,03,23,00,35,3.00
2012,03,23,00,36,3.00
2012,03,23,00,37,3.00
2012,03,23,00,38,3.00
2012,03,23,00,39,3.00
2012,03,23,00,40,3.00
2012,03,23,00,41,3.00
2012,03,23,00,42,3.00
2012,03,23,00,43,3.00
2012,03,23,00,44,3.00
2012,03,23,00,45,2.90
2012,03,23,00,46,2.90
2012,03,23,00,47,2.90
2012,03,23,00,48,2.90
2012,03,23,00,49,2.90
2012,03,23,00,50,2.90
2012,03,23,00,51,2.90
2012,03,23,00,52,2.90
2012,03,23,00,53,2.90
2012,03,23,00,54,2.90
2012,03,23,00,55,2.90
2012,03,23,00,56,2.90
2012,03,23,00,57,2.90
2012,03,23,00,58,2.90
2012,03,23,00,59,2.90
2012,03,23,01,00,2.90
2012,03,23,01,01,2.90
2012,03,23,01,02,2.90
2012,03,23,01,03,2.90
2012,03,23,01,04,2.90
2012,03,23,01,05,2.80
2012,03,23,01,06,2.80
2012,03,23,01,07,2.80
2012,03,23,01,08,2.80
2012,03,23,01,09,2.80
2012,03,23,01,10,2.80
2012,03,23,01,11,2.80
2012,03,23,01,12,2.80
2012,03,23,01,13,2.80
2012,03,23,01,14,2.80
2012,03,23,01,15,2.80
2012,03,23,01,16,2.80
2012,03,23,01,17,2.80
2012,03,23,01,18,2.80
2012,03,23,01,19,2.80
2012,03,23,01,20,2.80
2012,03,23,01,21,2.80
2012,03,23,01,22,2.80
2012,03,23,01,23,2.80
2012,03,23,01,24,2.80
2012,03,23,01,25,2.80
2012,03,23,01,26,2.80
2012,03,23,01,27,2.80
2012,03,23,01,28,2.80
2012,03,23,01,29,2.80
2012,03,23,01,30,2.80
2012,03,23,01,31,2.80
2012,03,23,01,32,2.80
2012,03,23,01,33,2.80
2012,03,23,01,34,2.80
2012,03,23,01,35,2.80
2012,03,23,01,36,2.80
2012,03,23,01,37,2.80
2012,03,23,01,38,2.80
2012,03,23,01,39,2.80
2012,03,23,01,40,2.80
2012,03,23,01,41,2.80
2012,03,23,01,42,2.80
2012,03,23,01,43,2.80
2012,03,23,01,44,2.80
2012,03,23,01,45,2.80
2012,03,23,01,46,2.80
2012,03,23,01,47,2.80
2012,03,23,01,48,2.80
2012,03,23,01,49,2.80
2012,03,23,01,50,2.80
2012,03,23,01,51,2.80
2012,03,23,01,52,2.80
2012,03,23,01,53,2.80
2012,03,23,01,54,2.70
2012,03,23,01,55,2.70
2012,03,23,01,56,2.70
2012,03,23,01,57,2.70
2012,03,23,01,58,2.70
2012,03,23,01,59,2.70
2012,03,23,02,00,2.70
2012,03,23,02,01,2.70
2012,03,23,02,02,2.70
2012,03,23,02,03,2.70
2012,03,23,02,04,2.70
2012,03,23,02,05,2.70
2012,03,23,02,06,2.70
2012,03,23,02,07,2.70
2012,03,23,02,08,2.60
2012,03,23,02,09,2.60
2012,03,23,02,10,2.60
2012,03,23,02,11,2.60
2012,03,23,02,12,2.60
2012,03,23,02,13,2.60
2012,03,23,02,14,2.60
2012,03,23,02,15,2.60
2012,03,23,02,16,2.60
2012,03,23,02,17,2.60
2012,03,23,02,18,2.60
2012,03,23,02,19,2.60
2012,03,23,02,20,2.60
2012,03,23,02,21,2.60
2012,03,23,02,22,2.60
2012,03,23,02,23,2.60
2012,03,23,02,24,2.60
2012,03,23,02,25,2.60
2012,03,23,02,26,2.50
2012,03,23,02,27,2.50
2012,03,23,02,28,2.50
2012,03,23,02,29,2.50
2012,03,23,02,30,2.50
2012,03,23,02,31,2.50
2012,03,23,02,32,2.50
2012,03,23,02,33,2.50
2012,03,23,02,34,2.40
2012,03,23,02,35,2.40
2012,03,23,02,36,2.40
2012,03,23,02,37,2.40
2012,03,23,02,38,2.40
2012,03,23,02,39,2.40
2012,03,23,02,40,2.40
2012,03,23,02,41,2.40
2012,03,23,02,42,2.40
2012,03,23,02,43,2.30
2012,03,23,02,44,2.30
2012,03,23,02,45,2.30
2012,03,23,02,46,2.30
2012,03,23,02,47,2.30
2012,03,23,02,48,2.30
2012,03,23,02,49,2.30
2012,03,23,02,50,2.30
2012,03,23,02,51,2.20
2012,03,23,02,52,2.20
2012,03,23,02,53,2.20
2012,03,23,02,54,2.20
2012,03,23,02,55,2.20
2012,03,23,02,56,2.20
2012,03,23,02,57,2.10
2012,03,23,02,58,2.10
2012,03,23,02,59,2.10
2012,03,23,03,00,2.10
2012,03,23,03,01,2.00
2012,03,23,03,02,2.00
2012,03,23,03,03,2.00
2012,03,23,03,04,2.00
2012,03,23,03,05,1.90
2012,03,23,03,06,1.90
2012,03,23,03,07,1.90
2012,03,23,03,08,1.90
2012,03,23,03,09,1.90
2012,03,23,03,10,1.80
2012,03,23,03,11,1.80
2012,03,23,03,12,1.80
2012,03,23,03,13,1.80
2012,03,23,03,14,1.80
2012,03,23,03,15,1.80
2012,03,23,03,16,1.80
2012,03,23,03,17,1.80
2012,03,23,03,18,1.70
2012,03,23,03,19,1.70
2012,03,23,03,20,1.70
2012,03,23,03,21,1.70
2012,03,23,03,22,1.70
2012,03,23,03,23,1.70
2012,03,23,03,24,1.70
2012,03,23,03,25,1.60
2012,03,23,03,26,1.60
2012,03,23,03,27,1.60
2012,03,23,03,28,1.60
2012,03,23,03,29,1.60
2012,03,23,03,30,1.50
2012,03,23,03,31,1.50
2012,03,23,03,32,1.50
2012,03,23,03,33,1.40
2012,03,23,03,34,1.40
2012,03,23,03,35,1.40
2012,03,23,03,36,1.30
2012,03,23,03,37,1.30
2012,03,23,03,38,1.30
2012,03,23,03,39,1.30
2012,03,23,03,40,1.30
2012,03,23,03,41,1.30
2012,03,23,03,42,1.30
2012,03,23,03,43,1.30
2012,03,23,03,44,1.30
2012,03,23,03,45,1.30
2012,03,23,03,46,1.30
2012,03,23,03,47,1.30
2012,03,23,03,48,1.30
2012,03,23,03,49,1.30
2012,03,23,03,50,1.20
2012,03,23,03,51,1.20
2012,03,23,03,52,1.20
2012,03,23,03,53,1.20
2012,03,23,03,54,1.20
2012,03,23,03,55,1.20
2012,03,23,03,56,1.10
2012,03,23,03,57,1.10
2012,03,23,03,58,1.10
2012,03,23,03,59,1.10
2012,03,23,04,00,1.10
2012,03,23,04,01,1.10
2012,03,23,04,02,1.10
2012,03,23,04,03,1.00
2012,03,23,04,04,1.00
2012,03,23,04,05,1.00
2012,03,23,04,06,1.00
2012,03,23,04,07,1.00
2012,03,23,04,08,1.00
2012,03,23,04,09,0.90
2012,03,23,04,10,0.90
2012,03,23,04,11,0.90
2012,03,23,04,12,0.90
2012,03,23,04,13,0.80
2012,03,23,04,14,0.80
2012,03,23,04,15,0.80
2012,03,23,04,16,0.80
2012,03,23,04,17,0.80
2012,03,23,04,18,0.80
2012,03,23,04,19,0.70
2012,03,23,04,20,0.70
2012,03,23,04,21,0.70
2012,03,23,04,22,0.70
2012,03,23,04,23,0.70
2012,03,23,04,24,0.70
2012,03,23,04,25,0.60
2012,03,23,04,26,0.60
2012,03,23,04,27,0.60
2012,03,23,04,28,0.60
2012,03,23,04,29,0.60
2012,03,23,04,30,0.60
2012,03,23,04,31,0.50
2012,03,23,04,32,0.50
2012,03,23,04,33,0.50
2012,03,23,04,34,0.50
2012,03,23,04,35,0.50
2012,03,23,04,36,0.50
2012,03,23,04,37,0.50
2012,03,23,04,38,0.40
2012,03,23,04,39,0.40
2012,03,23,04,40,0.40
2012,03,23,04,41,0.40
2012,03,23,04,42,0.40
2012,03,23,04,43,0.40
2012,03,23,04,44,0.40
2012,03,23,04,45,0.40
2012,03,23,04,46,0.40
2012,03,23,04,47,0.40
2012,03,23,04,48,0.30
2012,03,23,04,49,0.30
2012,03,23,04,50,0.30
2012,03,23,04,51,0.30
2012,03,23,04,52,0.30
2012,03,23,04,53,0.30
2012,03,23,04,54,0.30
2012,03,23,04,55,0.20
2012,03,23,04,56,0.20
2012,03,23,04,57,0.20
2012,03,23,04,58,0.20
2012,03,23,04,59,0.20
2012,03,23,05,00,0.20
2012,03,23,05,01,0.20
2012,03,23,05,02,0.20
2012,03,23,05,03,0.10
2012,03,23,05,04,0.10
2012,03,23,05,05,0.10
2012,03,23,05,06,0.10
2012,03,23,05,07,0.10
2012,03,23,05,08,0.10
2012,03,23,05,09,0.10
2012,03,23,05,10,0.10
2012,03,23,05,11,0.00
2012,03,23,05,12,0.00
2012,03,23,05,13,0.00
2012,03,23,05,14,0.00
2012,03,23,05,15,-0.10
2012,03,23,05,16,-0.10
2012,03,23,05,17,-0.10
2012,03,23,05,18,-0.10
2012,03,23,05,19,-0.10
2012,03,23,05,20,-0.10
2012,03,23,05,21,-0.10
2012,03,23,05,22,-0.10
2012,03,23,05,23,-0.10
2012,03,23,05,24,-0.10
2012,03,23,05,25,-0.10
2012,03,23,05,26,-0.10
2012,03,23,05,27,-0.10
2012,03,23,05,28,-0.10
2012,03,23,05,29,-0.20
2012,03,23,05,30,-0.20
2012,03,23,05,31,-0.20
2012,03,23,05,32,-0.20
2012,03,23,05,33,-0.20
2012,03,23,05,34,-0.20
2012,03,23,05,35,-0.20
2012,03,23,05,36,-0.20
2012,03,23,05,37,-0.30
2012,03,23,05,38,-0.30
2012,03,23,05,39,-0.30
2012,03,23,05,40,-0.30
2012,03,23,05,41,-0.30
2012,03,23,05,42,-0.30
2012,03,23,05,43,-0.40
2012,03,23,05,44,-0.40
2012,03,23,05,45,-0.40
2012,03,23,05,46,-0.40
2012,03,23,05,47,-0.40
2012,03,23,05,48,-0.40
2012,03,23,05,49,-0.40
2012,03,23,05,50,-0.40
2012,03,23,05,51,-0.40
2012,03,23,05,52,-0.40
2012,03,23,05,53,-0.40
2012,03,23,05,54,-0.30
2012,03,23,05,55,-0.30
2012,03,23,05,56,-0.30
2012,03,23,05,57,-0.30
2012,03,23,05,58,-0.30
2012,03,23,05,59,-0.30
2012,03,23,06,00,-0.30
2012,03,23,06,01,-0.30
2012,03,23,06,02,-0.30
2012,03,23,06,03,-0.30
2012,03,23,06,04,-0.30
2012,03,23,06,05,-0.30
2012,03,23,06,06,-0.30
2012,03,23,06,07,-0.30
2012,03,23,06,08,-0.30
2012,03,23,06,09,-0.30
2012,03,23,06,10,-0.30
2012,03,23,06,11,-0.30
2012,03,23,06,12,-0.30
2012,03,23,06,13,-0.30
2012,03,23,06,14,-0.30
2012,03,23,06,15,-0.30
2012,03,23,06,16,-0.30
2012,03,23,06,17,-0.40
2012,03,23,06,18,-0.40
2012,03,23,06,19,-0.40
2012,03,23,06,20,-0.40
2012,03,23,06,21,-0.40
2012,03,23,06,22,-0.40
2012,03,23,06,23,-0.50
2012,03,23,06,24,-0.50
2012,03,23,06,25,-0.50
2012,03,23,06,26,-0.50
2012,03,23,06,27,-0.50
2012,03,23,06,28,-0.50
2012,03,23,06,29,-0.50
2012,03,23,06,30,-0.60
2012,03,23,06,31,-0.60
2012,03,23,06,32,-0.60
2012,03,23,06,33,-0.60
2012,03,23,06,34,-0.60
2012,03,23,06,35,-0.60
2012,03,23,06,36,-0.50
2012,03,23,06,37,-0.50
2012,03,23,06,38,-0.50
2012,03,23,06,39,-0.50
2012,03,23,06,40,-0.50
2012,03,23,06,41,-0.50
2012,03,23,06,42,-0.50
2012,03,23,06,43,-0.50
2012,03,23,06,44,-0.50
2012,03,23,06,45,-0.50
2012,03,23,06,46,-0.50
2012,03,23,06,47,-0.50
2012,03,23,06,48,-0.50
2012,03,23,06,49,-0.50
2012,03,23,06,50,-0.50
2012,03,23,06,51,-0.50
2012,03,23,06,52,-0.40
2012,03,23,06,53,-0.40
2012,03,23,06,54,-0.40
2012,03,23,06,55,-0.40
2012,03,23,06,56,-0.40
2012,03,23,06,57,-0.40
2012,03,23,06,58,-0.40
2012,03,23,06,59,-0.40
2012,03,23,07,00,-0.40
2012,03,23,07,01,-0.40
2012,03,23,07,02,-0.40
2012,03,23,07,03,-0.40
2012,03,23,07,04,-0.30
2012,03,23,07,05,-0.30
2012,03,23,07,06,-0.30
2012,03,23,07,07,-0.30
2012,03,23,07,08,-0.30
2012,03,23,07,09,-0.30
2012,03,23,07,10,-0.30
2012,03,23,07,11,-0.30
2012,03,23,07,12,-0.30
2012,03,23,07,13,-0.30
2012,03,23,07,14,-0.30
2012,03,23,07,15,-0.30
2012,03,23,07,16,-0.20
2012,03,23,07,17,-0.20
2012,03,23,07,18,-0.20
2012,03,23,07,19,-0.20
2012,03,23,07,20,-0.20
2012,03,23,07,21,-0.20
2012,03,23,07,22,-0.20
2012,03,23,07,23,-0.20
2012,03,23,07,24,-0.20
2012,03,23,07,25,-0.20
2012,03,23,07,26,-0.20
2012,03,23,07,27,-0.20
2012,03,23,07,28,-0.20
2012,03,23,07,29,-0.20
2012,03,23,07,30,-0.20
2012,03,23,07,31,-0.20
2012,03,23,07,32,-0.20
2012,03,23,07,33,-0.20
2012,03,23,07,34,-0.20
2012,03,23,07,35,-0.20
2012,03,23,07,36,-0.20
2012,03,23,07,37,-0.20
2012,03,23,07,38,-0.20
2012,03,23,07,39,-0.20
2012,03,23,07,40,-0.20
2012,03,23,07,41,-0.20
2012,03,23,07,42,-0.20
2012,03,23,07,43,-0.20
2012,03,23,07,44,-0.20
2012,03,23,07,45,-0.20
2012,03,23,07,46,-0.20
2012,03,23,07,47,-0.20
2012,03,23,07,48,-0.20
2012,03,23,07,49,-0.10
2012,03,23,07,50,-0.10
2012,03,23,07,51,-0.10
2012,03,23,07,52,-0.10
2012,03,23,07,53,-0.10
2012,03,23,07,54,0.00
2012,03,23,07,55,0.00
2012,03,23,07,56,0.00
2012,03,23,07,57,0.00
2012,03,23,07,58,0.00
2012,03,23,07,59,0.10
2012,03,23,08,00,0.10
2012,03,23,08,01,0.10
2012,03,23,08,02,0.10
2012,03,23,08,03,0.10
2012,03,23,08,04,0.10
2012,03,23,08,05,0.20
2012,03,23,08,06,0.20
2012,03,23,08,07,0.20
2012,03,23,08,08,0.20
2012,03,23,08,09,0.20
2012,03,23,08,10,0.20
2012,03,23,08,11,0.30
2012,03,23,08,12,0.30
2012,03,23,08,13,0.30
2012,03,23,08,14,0.30
2012,03,23,08,15,0.30
2012,03,23,08,16,0.40
2012,03,23,08,17,0.40
2012,03,23,08,18,0.40
2012,03,23,08,19,0.40
2012,03,23,08,20,0.40
2012,03,23,08,21,0.40
2012,03,23,08,22,0.50
2012,03,23,08,23,0.50
2012,03,23,08,24,0.50
2012,03,23,08,25,0.60
2012,03,23,08,26,0.60
2012,03,23,08,27,0.60
2012,03,23,08,28,0.60
2012,03,23,08,29,0.60
2012,03,23,08,30,0.60
2012,03,23,08,31,0.60
2012,03,23,08,32,0.70
2012,03,23,08,33,0.70
2012,03,23,08,34,0.70
2012,03,23,08,35,0.70
2012,03,23,08,36,0.70
2012,03,23,08,37,0.70
2012,03,23,08,38,0.70
2012,03,23,08,39,0.80
2012,03,23,08,40,0.80
2012,03,23,08,41,0.80
2012,03,23,08,42,0.80
2012,03,23,08,43,0.80
2012,03,23,08,44,0.80
2012,03,23,08,45,0.80
2012,03,23,08,46,0.80
2012,03,23,08,47,0.80
2012,03,23,08,48,0.90
2012,03,23,08,49,0.90
2012,03,23,08,50,0.90
2012,03,23,08,51,0.90
2012,03,23,08,52,0.90
2012,03,23,08,53,1.00
2012,03,23,08,54,1.00
2012,03,23,08,55,1.00
2012,03,23,08,56,1.00
2012,03,23,08,57,1.10
2012,03,23,08,58,1.10
2012,03,23,08,59,1.10
2012,03,23,09,00,1.10
2012,03,23,09,01,1.20
2012,03,23,09,02,1.20
2012,03,23,09,03,1.20
2012,03,23,09,04,1.20
2012,03,23,09,05,1.30
2012,03,23,09,06,1.30
2012,03,23,09,07,1.30
2012,03,23,09,08,1.30
2012,03,23,09,09,1.30
2012,03,23,09,10,1.30
2012,03,23,09,11,1.30
2012,03,23,09,12,1.30
2012,03,23,09,13,1.30
2012,03,23,09,14,1.30
2012,03,23,09,15,1.30
2012,03,23,09,16,1.30
2012,03,23,09,17,1.30
2012,03,23,09,18,1.30
2012,03,23,09,19,1.30
2012,03,23,09,20,1.30
2012,03,23,09,21,1.40
2012,03,23,09,22,1.40
2012,03,23,09,23,1.40
2012,03,23,09,24,1.40
2012,03,23,09,25,1.40
2012,03,23,09,26,1.50
2012,03,23,09,27,1.50
2012,03,23,09,28,1.50
2012,03,23,09,29,1.60
2012,03,23,09,30,1.60
2012,03,23,09,31,1.60
2012,03,23,09,32,1.60
2012,03,23,09,33,1.60
2012,03,23,09,34,1.60
2012,03,23,09,35,1.70
2012,03,23,09,36,1.70
2012,03,23,09,37,1.70
2012,03,23,09,38,1.70
2012,03,23,09,39,1.70
2012,03,23,09,40,1.80
2012,03,23,09,41,1.80
2012,03,23,09,42,1.80
2012,03,23,09,43,1.80
2012,03,23,09,44,1.80
2012,03,23,09,45,1.90
2012,03,23,09,46,1.90
2012,03,23,09,47,1.90
2012,03,23,09,48,2.00
2012,03,23,09,49,2.00
2012,03,23,09,50,2.00
2012,03,23,09,51,2.00
2012,03,23,09,52,2.10
2012,03,23,09,53,2.10
2012,03,23,09,54,2.10
2012,03,23,09,55,2.10
2012,03,23,09,56,2.20
2012,03,23,09,57,2.20
2012,03,23,09,58,2.20
2012,03,23,09,59,2.30
2012,03,23,10,00,2.30
2012,03,23,10,01,2.40
2012,03,23,10,02,2.40
2012,03,23,10,03,2.40
2012,03,23,10,04,2.50
2012,03,23,10,05,2.50
2012,03,23,10,06,2.60
2012,03,23,10,07,2.60
2012,03,23,10,08,2.60
2012,03,23,10,09,2.70
2012,03,23,10,10,2.70
2012,03,23,10,11,2.80
2012,03,23,10,12,2.80
2012,03,23,10,13,2.80
2012,03,23,10,14,2.90
2012,03,23,10,15,2.90
2012,03,23,10,16,2.90
2012,03,23,10,17,3.00
2012,03,23,10,18,3.10
2012,03,23,10,19,3.10
2012,03,23,10,20,3.10
2012,03,23,10,21,3.20
2012,03,23,10,22,3.20
2012,03,23,10,23,3.20
2012,03,23,10,24,3.20
2012,03,23,10,25,3.30
2012,03,23,10,26,3.30
2012,03,23,10,27,3.30
2012,03,23,10,28,3.40
2012,03,23,10,29,3.40
2012,03,23,10,30,3.50
2012,03,23,10,31,3.50
2012,03,23,10,32,3.60
2012,03,23,10,33,3.60
2012,03,23,10,34,3.60
2012,03,23,10,35,3.70
2012,03,23,10,36,3.70
2012,03,23,10,37,3.70
2012,03,23,10,38,3.80
2012,03,23,10,39,3.80
2012,03,23,10,40,3.80
2012,03,23,10,41,3.80
2012,03,23,10,42,3.90
2012,03,23,10,43,3.90
2012,03,23,10,44,3.90
2012,03,23,10,45,4.00
2012,03,23,10,46,4.00
2012,03,23,10,47,4.10
2012,03,23,10,48,4.10
2012,03,23,10,49,4.10
2012,03,23,10,50,4.10
2012,03,23,10,51,4.20
2012,03,23,10,52,4.20
2012,03,23,10,53,4.20
2012,03,23,10,54,4.30
2012,03,23,10,55,4.30
2012,03,23,10,56,4.30
2012,03,23,10,57,4.30
2012,03,23,10,58,4.40
2012,03,23,10,59,4.40
2012,03,23,11,00,4.40
2012,03,23,11,01,4.50
2012,03,23,11,02,4.50
2012,03,23,11,03,4.50
2012,03,23,11,04,4.60
2012,03,23,11,05,4.60
2012,03,23,11,06,4.60
2012,03,23,11,07,4.70
2012,03,23,11,08,4.70
2012,03,23,11,09,4.70
2012,03,23,11,10,4.80
2012,03,23,11,11,4.80
2012,03,23,11,12,4.80
2012,03,23,11,13,4.80
2012,03,23,11,14,4.90
2012,03,23,11,15,4.90
2012,03,23,11,16,4.90
2012,03,23,11,17,4.90
2012,03,23,11,18,5.00
2012,03,23,11,19,5.00
2012,03,23,11,20,5.00
2012,03,23,11,21,5.10
2012,03,23,11,22,5.10
2012,03,23,11,23,5.10
2012,03,23,11,24,5.20
2012,03,23,11,25,5.20
2012,03,23,11,26,5.20
2012,03,23,11,27,5.20
2012,03,23,11,28,5.30
2012,03,23,11,29,5.30
2012,03,23,11,30,5.30
2012,03,23,11,31,5.40
2012,03,23,11,32,5.40
2012,03,23,11,33,5.40
2012,03,23,11,34,5.40
2012,03,23,11,35,5.50
2012,03,23,11,36,5.50
2012,03,23,11,37,5.60
2012,03,23,11,38,5.60
2012,03,23,11,39,5.70
2012,03,23,11,40,5.70
2012,03,23,11,41,5.70
2012,03,23,11,42,5.70
2012,03,23,11,43,5.70
2012,03,23,11,44,5.80
2012,03,23,11,45,5.80
2012,03,23,11,46,5.80
2012,03,23,11,47,5.80
2012,03,23,11,48,5.80
2012,03,23,11,49,5.80
2012,03,23,11,50,5.80
2012,03,23,11,51,5.80
2012,03,23,11,52,5.80
2012,03,23,11,53,5.80
2012,03,23,11,54,5.80
2012,03,23,11,55,5.80
2012,03,23,11,56,5.80
2012,03,23,11,57,5.90
2012,03,23,11,58,5.90
2012,03,23,11,59,5.90
2012,03,23,12,00,5.90
2012,03,23,12,01,6.00
2012,03,23,12,02,6.00
2012,03,23,12,03,6.00
2012,03,23,12,04,6.10
2012,03,23,12,05,6.10
2012,03,23,12,06,6.10
2012,03,23,12,07,6.20
2012,03,23,12,08,6.20
2012,03,23,12,09,6.20
2012,03,23,12,10,6.20
2012,03,23,12,11,6.20
2012,03,23,12,12,6.20
2012,03,23,12,13,6.20
2012,03,23,12,14,6.20
2012,03,23,12,15,6.20
2012,03,23,12,16,6.20
2012,03,23,12,17,6.20
2012,03,23,12,18,6.30
2012,03,23,12,19,6.30
2012,03,23,12,20,6.30
2012,03,23,12,21,6.30
2012,03,23,12,22,6.30
2012,03,23,12,23,6.30
2012,03,23,12,24,6.40
2012,03,23,12,25,6.40
2012,03,23,12,26,6.40
2012,03,23,12,27,6.40
2012,03,23,12,28,6.40
2012,03,23,12,29,6.50
2012,03,23,12,30,6.50
2012,03,23,12,31,6.50
2012,03,23,12,32,6.60
2012,03,23,12,33,6.60
2012,03,23,12,34,6.60
2012,03,23,12,35,6.60
2012,03,23,12,36,6.60
2012,03,23,12,37,6.60
2012,03,23,12,38,6.60
2012,03,23,12,39,6.60
2012,03,23,12,40,6.60
2012,03,23,12,41,6.60
2012,03,23,12,42,6.60
2012,03,23,12,43,6.60
2012,03,23,12,44,6.70
2012,03,23,12,45,6.70
2012,03,23,12,46,6.80
2012,03,23,12,47,6.80
2012,03,23,12,48,6.80
2012,03,23,12,49,6.80
2012,03,23,12,50,6.90
2012,03,23,12,51,6.90
2012,03,23,12,52,6.90
2012,03,23,12,53,6.90
2012,03,23,12,54,6.90
2012,03,23,12,55,6.90
2012,03,23,12,56,7.00
2012,03,23,12,57,7.00
2012,03,23,12,58,7.00
2012,03,23,12,59,7.10
2012,03,23,13,00,7.10
2012,03,23,13,01,7.10
2012,03,23,13,02,7.10
2012,03,23,13,03,7.10
2012,03,23,13,04,7.20
2012,03,23,13,05,7.20
2012,03,23,13,06,7.20
2012,03,23,13,07,7.20
2012,03,23,13,08,7.20
2012,03,23,13,09,7.20
2012,03,23,13,10,7.20
2012,03,23,13,11,7.20
2012,03,23,13,12,7.20
2012,03,23,13,13,7.20
2012,03,23,13,14,7.20
2012,03,23,13,15,7.20
2012,03,23,13,16,7.20
2012,03,23,13,17,7.20
2012,03,23,13,18,7.20
2012,03,23,13,19,7.20
2012,03,23,13,20,7.20
2012,03,23,13,21,7.20
2012,03,23,13,22,7.20
2012,03,23,13,23,7.20
2012,03,23,13,24,7.20
2012,03,23,13,25,7.20
2012,03,23,13,26,7.20
2012,03,23,13,27,7.20
2012,03,23,13,28,7.20
2012,03,23,13,29,7.20
2012,03,23,13,30,7.20
2012,03,23,13,31,7.20
2012,03,23,13,32,7.30
2012,03,23,13,33,7.30
2012,03,23,13,34,7.30
2012,03,23,13,35,7.30
2012,03,23,13,36,7.40
2012,03,23,13,37,7.40
2012,03,23,13,38,7.50
2012,03,23,13,39,7.60
2012,03,23,13,40,7.60
2012,03,23,13,41,7.70
2012,03,23,13,42,7.70
2012,03,23,13,43,7.80
2012,03,23,13,44,7.80
2012,03,23,13,45,7.80
2012,03,23,13,46,7.80
2012,03,23,13,47,7.90
2012,03,23,13,48,7.90
2012,03,23,13,49,7.90
2012,03,23,13,50,8.00
2012,03,23,13,51,8.00
2012,03,23,13,52,8.10
2012,03,23,13,53,8.10
2012,03,23,13,54,8.10
2012,03,23,13,55,8.20
2012,03,23,13,56,8.20
2012,03,23,13,57,8.30
2012,03,23,13,58,8.30
2012,03,23,13,59,8.30
2012,03,23,14,00,8.30
2012,03,23,14,01,8.40
2012,03,23,14,02,8.40
2012,03,23,14,03,8.40
2012,03,23,14,04,8.40
2012,03,23,14,05,8.50
2012,03,23,14,06,8.50
2012,03,23,14,07,8.50
2012,03,23,14,08,8.60
2012,03,23,14,09,8.60
2012,03,23,14,10,8.60
2012,03,23,14,11,8.60
2012,03,23,14,12,8.70
2012,03,23,14,13,8.70
2012,03,23,14,14,8.80
2012,03,23,14,15,8.80
2012,03,23,14,16,8.80
2012,03,23,14,17,8.90
2012,03,23,14,18,8.90
2012,03,23,14,19,9.00
2012,03,23,14,20,9.00
2012,03,23,14,21,9.10
2012,03,23,14,22,9.10
2012,03,23,14,23,9.20
2012,03,23,14,24,9.20
2012,03,23,14,25,9.20
2012,03,23,14,26,9.20
2012,03,23,14,27,9.30
2012,03,23,14,28,9.30
2012,03,23,14,29,9.30
2012,03,23,14,30,9.30
2012,03,23,14,31,9.30
2012,03,23,14,32,9.30
2012,03,23,14,33,9.30
2012,03,23,14,34,9.30
2012,03,23,14,35,9.30
2012,03,23,14,36,9.30
2012,03,23,14,37,9.20
2012,03,23,14,38,9.20
2012,03,23,14,39,9.10
2012,03,23,14,40,9.10
2012,03,23,14,41,9.00
2012,03,23,14,42,8.90
2012,03,23,14,43,8.90
2012,03,23,14,44,8.80
2012,03,23,14,45,8.70
2012,03,23,14,46,8.70
2012,03,23,14,47,8.60
2012,03,23,14,48,8.60
2012,03,23,14,49,8.60
2012,03,23,14,50,8.60
2012,03,23,14,51,8.60
2012,03,23,14,52,8.60
2012,03,23,14,53,8.60
2012,03,23,14,54,8.60
2012,03,23,14,55,8.60
2012,03,23,14,56,8.60
2012,03,23,14,57,8.60
2012,03,23,14,58,8.60
2012,03,23,14,59,8.60
2012,03,23,15,00,8.60
2012,03,23,15,01,8.60
2012,03,23,15,02,8.60
2012,03,23,15,03,8.60
2012,03,23,15,04,8.70
2012,03,23,15,05,8.70
2012,03,23,15,06,8.70
2012,03,23,15,07,8.80
2012,03,23,15,08,8.80
2012,03,23,15,09,8.80
2012,03,23,15,10,8.80
2012,03,23,15,11,8.80
2012,03,23,15,12,8.80
2012,03,23,15,13,8.90
2012,03,23,15,14,8.90
2012,03,23,15,15,8.90
2012,03,23,15,16,8.90
2012,03,23,15,17,8.90
2012,03,23,15,18,8.90
2012,03,23,15,19,8.90
2012,03,23,15,20,8.90
2012,03,23,15,21,8.80
2012,03,23,15,22,8.80
2012,03,23,15,23,8.80
2012,03,23,15,24,8.80
2012,03,23,15,25,8.80
2012,03,23,15,26,8.70
2012,03,23,15,27,8.70
2012,03,23,15,28,8.70
2012,03,23,15,29,8.70
2012,03,23,15,30,8.70
2012,03,23,15,31,8.70
2012,03,23,15,32,8.70
2012,03,23,15,33,8.70
2012,03,23,15,34,8.70
2012,03,23,15,35,8.80
2012,03,23,15,36,8.80
2012,03,23,15,37,8.80
2012,03,23,15,38,8.90
2012,03,23,15,39,8.90
2012,03,23,15,40,8.90
2012,03,23,15,41,8.90
2012,03,23,15,42,9.00
2012,03,23,15,43,9.00
2012,03,23,15,44,9.10
2012,03,23,15,45,9.10
2012,03,23,15,46,9.20
2012,03,23,15,47,9.30
2012,03,23,15,48,9.40
2012,03,23,15,49,9.50
2012,03,23,15,50,9.60
2012,03,23,15,51,9.70
2012,03,23,15,52,9.80
2012,03,23,15,53,9.90
2012,03,23,15,54,9.90
2012,03,23,15,55,9.90
2012,03,23,15,56,10.00
2012,03,23,15,57,10.10
2012,03,23,15,58,10.20
2012,03,23,15,59,10.30
2012,03,23,16,00,10.40
2012,03,23,16,01,10.50
2012,03,23,16,02,10.60
2012,03,23,16,03,10.70
2012,03,23,16,04,10.80
2012,03,23,16,05,10.80
2012,03,23,16,06,10.90
2012,03,23,16,07,10.90
2012,03,23,16,08,11.00
2012,03,23,16,09,11.00
2012,03,23,16,10,11.10
2012,03,23,16,11,11.10
2012,03,23,16,12,11.20
2012,03,23,16,13,11.30
2012,03,23,16,14,11.30
2012,03,23,16,15,11.40
2012,03,23,16,16,11.40
2012,03,23,16,17,11.50
2012,03,23,16,18,11.50
2012,03,23,16,19,11.50
2012,03,23,16,20,11.60
2012,03,23,16,21,11.50
2012,03,23,16,22,11.40
2012,03,23,16,23,11.30
2012,03,23,16,24,11.20
2012,03,23,16,25,11.10
2012,03,23,16,26,11.00
2012,03,23,16,27,11.00
2012,03,23,16,28,10.90
2012,03,23,16,29,10.90
2012,03,23,16,30,10.90
2012,03,23,16,31,10.80
2012,03,23,16,32,10.80
2012,03,23,16,33,10.90
2012,03,23,16,34,10.90
2012,03,23,16,35,10.90
2012,03,23,16,36,10.90
2012,03,23,16,37,10.80
2012,03,23,16,38,10.80
2012,03,23,16,39,10.70
2012,03,23,16,40,10.80
2012,03,23,16,41,10.80
2012,03,23,16,42,10.90
2012,03,23,16,43,11.00
2012,03,23,16,44,10.90
2012,03,23,16,45,11.00
2012,03,23,16,46,11.00
2012,03,23,16,47,11.00
2012,03,23,16,48,11.10
2012,03,23,16,49,11.10
2012,03,23,16,50,11.10
2012,03,23,16,51,11.10
2012,03,23,16,52,11.00
2012,03,23,16,53,10.90
2012,03,23,16,54,10.90
2012,03,23,16,55,10.80
2012,03,23,16,56,10.80
2012,03,23,16,57,10.90
2012,03,23,16,58,10.90
2012,03,23,16,59,11.00
2012,03,23,17,00,11.00
2012,03,23,17,01,11.10
2012,03,23,17,02,11.10
2012,03,23,17,03,11.10
2012,03,23,17,04,11.10
2012,03,23,17,05,11.10
2012,03,23,17,06,11.10
2012,03,23,17,07,11.10
2012,03,23,17,08,11.10
2012,03,23,17,09,11.10
2012,03,23,17,10,11.10
2012,03,23,17,11,11.10
2012,03,23,17,12,11.10
2012,03,23,17,13,11.10
2012,03,23,17,14,11.10
2012,03,23,17,15,11.10
2012,03,23,17,16,11.00
2012,03,23,17,17,11.00
2012,03,23,17,18,10.90
2012,03,23,17,19,10.90
2012,03,23,17,20,10.80
2012,03,23,17,21,10.80
2012,03,23,17,22,10.70
2012,03,23,17,23,10.60
2012,03,23,17,24,10.50
2012,03,23,17,25,10.40
2012,03,23,17,26,10.40
2012,03,23,17,27,10.40
2012,03,23,17,28,10.30
2012,03,23,17,29,10.30
2012,03,23,17,30,10.30
2012,03,23,17,31,10.30
2012,03,23,17,32,10.30
2012,03,23,17,33,10.30
2012,03,23,17,34,10.30
2012,03,23,17,35,10.30
2012,03,23,17,36,10.30
2012,03,23,17,37,10.30
2012,03,23,17,38,10.30
2012,03,23,17,39,10.30
2012,03,23,17,40,10.30
2012,03,23,17,41,10.30
2012,03,23,17,42,10.30
2012,03,23,17,43,10.30
2012,03,23,17,44,10.30
2012,03,23,17,45,10.30
2012,03,23,17,46,10.30
2012,03,23,17,47,10.30
2012,03,23,17,48,10.30
2012,03,23,17,49,10.30
2012,03,23,17,50,10.30
2012,03,23,17,51,10.30
2012,03,23,17,52,10.30
2012,03,23,17,53,10.30
2012,03,23,17,54,10.30